Location: Milo
(50.5667°N, 112.8833°W)
Time: 01:14:54
(UTC+00:00)

N. Korean satellite - Pass Details

Date: 08 December 2021
Orbit: 446 x 492 km, 97.3° (Epoch: 16 January)

Event Time Altitude Azimuth Distance (km) Brightness Sun altitude
Rises 13:46:19 0° 2° (N) 2,467 10.0 -13.9°
Reaches altitude 10° 13:48:35 10° 349° (N) 1,587 8.9 -13.6°
Maximum altitude 13:51:23 24° 293° (WNW) 970 7.5 -13.2°
Drops below altitude 10° 13:54:09 10° 238° (WSW) 1,575 8.8 -12.8°
Sets 13:56:25 0° 224° (SW) 2,444 9.9 -12.4°
